Tracking 29089 objects as of 12-Jul-2024
HD Live streaming from Space Station
objects crossing your sky now

STARLINK-11086

Track STARLINK-11086 now!
10-day predictions
STARLINK-11086 is classified as:


NORAD ID: 60043
Int'l Code: 2024-112F
Perigee: 345.8 km
Apogee: 348.1 km
Inclination: 53.2 °
Period: 91.3 minutes
Semi major axis: 6717 km
RCS: Unknown
Launch date: June 8, 2024
Source: United States (US)
Launch site: AIR FORCE WESTERN TEST RANGE (AFWTR)
Your satellite tracking list
Your tracking list is empty




NASA's NSSDC Master Catalog

Two Line Element Set (TLE):
1 60043U 24112F   24194.20356527  .00085585  00000-0  52221-3 0  9999
2 60043  53.1600  13.2288 0001711 265.6305  94.4521 15.76704160  6278
Source of the keplerian elements: AFSPC